{"data":{"norad_id":52898,"epoch":"2026-09-20T23:23:53.939904Z","epoch_age_seconds":93126,"freshness":"FRESH","line1":"1 52898U 22065E   26263.97492986  .00000507  00000+0  10631-3 0  9995","line2":"2 52898  98.2356  48.0605 0009212  85.2696 274.9558 14.63818029225269","mean_motion":14.63818029,"eccentricity":0.0009212,"inclination_deg":98.2356,"raan_deg":48.0605,"arg_perigee_deg":85.2696,"mean_anomaly_deg":274.9558,"bstar":0.00010631,"rev_number":22526,"period_min":98.37288320487,"perigee_km":674.36996370606,"apogee_km":687.37548322057,"semimajor_km":7059.0097234633,"source":"CELESTRAK","updated_at":"2026-09-21T09:00:08.760390Z"}}